Location: Cactus School
(34.5700°N, 118.0931°W)
Time: 06:35:43
(UTC-07:00)

Transit 4A - Pass Details

Date: 18 April 2024
Orbit: 871 x 971 km, 66.8° (Epoch: 22 May)

Event Time Altitude Azimuth Distance (km) Brightness Sun altitude
Rises 12:48:55 0° 185° (S) 3,562 11.3 66.6°
Reaches altitude 10° 12:51:36 10° 178° (S) 2,607 10.8 66.6°
Maximum altitude 12:57:12 41° 110° (ESE) 1,288 9.5 66.6°
Drops below altitude 10° 13:02:42 10° 42° (NE) 2,559 10.1 66.5°
Sets 13:05:17 0° 35° (NE) 3,490 10.7 66.4°
